x

East Bahamas - 335 Nm East Of San Salvador Is, Bahamas (41046) Weather Station

8:20am - Wed 27th Jul 2016 All times are UTC.

  • Wind
    13mph, 16mph gusts
  • Sea Temp 85°f
  • Air Temp 83°f
  • Sea Pressure 1017mb

More Historic Weather Station data

Upgrade to MSW Pro to gain access to the past 30 days of data for over 8000 Wavebouys and Weather Stations around the globe.

Join Pro

Comparision Forecast

View Surf forecast
   
Wed 07/27 8:20am  -   -   -  13 16 mph 1017mb 85f 83f
8:10am  -   -   -  13 18 mph 1017mb 85f 83f
8:00am  -   -   -  13 16 mph 1017mb 85f 83f
7:50am 4ft 8s 5s 13 16 mph 1017mb 85f 83f
7:40am 4ft  -  5s 13 16 mph 1017mb 85f 83f
7:30am  -   -   -  13 16 mph 1017mb 85f 83f
7:20am  -   -   -  13 16 mph 1016.9mb 85f 83f
7:10am  -   -   -  13 16 mph 1016.9mb 85f 83f
7:00am  -   -   -  13 18 mph 1016.8mb 85f 83f
6:50am 4ft 8s 5s 13 18 mph 1016.9mb 85f 83f
6:40am  -   -   -  16 20 mph 1017.6mb 85f 83f
6:30am  -   -   -  13 16 mph 1017mb 85f 83f
6:20am  -   -   -  13 16 mph 1017.1mb 85f 83f
6:10am  -   -   -  13 18 mph 1017.3mb 85f 83f
6:00am  -   -   -  13 18 mph 1017.4mb 85f 83f
5:50am 3.5ft 7s 5s 16 20 mph 1017.5mb 85f 83f
5:40am  -   -   -  16 20 mph 1017.5mb 85f 83f
5:30am  -   -   -  16 18 mph 1017.5mb 85f 83f
5:20am  -   -   -  16 18 mph 1017.5mb 85f 83f
5:10am  -   -   -  13 18 mph 1017.6mb 85f 83f
5:00am  -   -   -  13 18 mph 1017.8mb 85f 83f
4:50am 4ft 7s 5s 13 18 mph 1018mb 85f 83f
4:40am 4ft  -  5s 13 16 mph 1018mb 85f 83f
4:30am  -   -   -  13 16 mph 1018.1mb 85f 83f
4:20am  -   -   -  13 16 mph 1018.3mb 85f 83f
4:10am  -   -   -  13 18 mph 1018.4mb 85f 83f
4:00am  -   -   -  13 18 mph 1018.4mb 85f 83f
3:50am 4ft 6s 5s 13 18 mph 1018.5mb 85f 83f
3:40am  -   -   -  13 18 mph 1018.5mb 85f 83f
3:30am  -   -   -  16 18 mph 1018.5mb 85f 83f
3:20am  -   -   -  16 18 mph 1018.5mb 85f 83f
3:10am  -   -   -  16 18 mph 1018.5mb 85f 83f
3:00am  -   -   -  16 18 mph 1018.5mb 85f 83f
2:50am 4.5ft 7s 5s 16 20 mph 1018.5mb 85f 83f
2:40am  -   -   -  16 20 mph 1018.5mb 85f 83f
2:30am  -   -   -  16 18 mph 1018.4mb 85f 83f
2:20am  -   -   -  16 20 mph 1018.4mb 85f 84f
2:10am  -   -   -  18 20 mph 1018.3mb 85f 83f
2:00am  -   -   -  18 22 mph 1019mb 85f 83f
1:50am 4ft 8s 5s 16 20 mph 1018.1mb 85f 83f
1:40am  -   -   -  18 20 mph 1018.3mb 85f 83f
1:30am  -   -   -  18 22 mph 1018.1mb 85f 83f
1:20am  -   -   -  16 20 mph 1018mb 85f 83f
1:10am  -   -   -  16 20 mph 1018.1mb 85f 83f
1:00am  -   -   -  16 20 mph 1018.1mb 85f 83f
12:50am 4.5ft 8s 5s 16 20 mph 1018mb 85f 83f
12:40am 4.5ft  -  5s 16 20 mph 1018mb 85f 83f
12:30am  -   -   -  18 22 mph 1018mb 85f 84f
12:20am  -   -   -  16 20 mph 1017.9mb 85f 83f
12:10am  -   -   -  16 20 mph 1017.9mb 85f 83f
12:00am  -   -   -  16 20 mph 1017.9mb 85f 84f
Tue 07/26 11:50pm 4.5ft 8s 5s 16 20 mph 1017.6mb 85f 84f
11:40pm  -   -   -  16 20 mph 1017.6mb 85f 84f
11:30pm  -   -   -  16 22 mph 1017.5mb 85f 84f
11:20pm  -   -   -  18 20 mph 1017.4mb 85f 83f
11:10pm  -   -   -  18 20 mph 1017.3mb 85f 83f
11:00pm  -   -   -  18 20 mph 1017.1mb 85f 84f
10:50pm 4ft 7s 5s 18 20 mph 1017.1mb 85f 84f
10:40pm 4ft  -  5s 16 20 mph 1017.1mb 85f 84f
10:30pm  -   -   -  16 20 mph 1017mb 85f 84f
10:20pm  -   -   -  16 20 mph 1017mb 85f 84f
10:10pm  -   -   -  16 18 mph 1017.3mb 85f 84f
10:00pm  -   -   -  16 20 mph 1017.3mb 85f 84f
9:50pm 4ft 6s 5s 16 18 mph 1017.3mb 85f 84f
9:40pm  -   -   -  16 18 mph 1017.3mb 85f 84f
9:30pm  -   -   -  16 18 mph 1017.4mb 85f 84f
9:20pm  -   -   -  16 18 mph 1017.4mb 85f 84f
9:10pm  -   -   -  16 18 mph 1017.3mb 85f 84f
9:00pm  -   -   -  16 18 mph 1017.3mb 85f 84f
8:50pm 4ft 7s 5s 13 18 mph 1017.4mb 85f 84f
8:40pm  -   -   -  11 16 mph 1017.5mb 85f 84f
8:30pm  -   -   -  13 16 mph 1017.5mb 85f 84f
8:20pm  -   -   -  13 16 mph 1017.6mb 85f 84f
8:10pm  -   -   -  13 16 mph 1017.6mb 85f 84f
8:00pm  -   -   -  13 16 mph 1017.6mb 85f 84f
7:50pm 4ft 6s 5s 11 16 mph 1017.6mb 85f 84f
7:40pm  -   -   -  11 13 mph 1018mb 85f 84f
7:30pm  -   -   -  13 16 mph 1018mb 85f 84f
7:20pm  -   -   -  11 16 mph 1018mb 85f 84f
7:10pm  -   -   -  11 16 mph 1018mb 85f 84f
7:00pm  -   -   -  11 16 mph 1018.1mb 85f 84f
6:50pm 3.5ft 8s 5s 13 16 mph 1018.1mb 85f 84f
6:40pm  -   -   -  11 16 mph 1018.3mb 85f 84f
6:30pm  -   -   -  11 16 mph 1018.4mb 85f 84f
6:20pm  -   -   -  13 18 mph 1018.5mb 85f 84f
6:10pm  -   -   -  11 16 mph 1018.5mb 85f 83f
6:00pm  -   -   -  11 16 mph 1018.6mb 85f 83f
5:50pm 4ft 7s 5s 11 16 mph 1018.8mb 85f 84f
5:40pm 4ft  -  5s 13 16 mph 1018.9mb 85f 84f
5:30pm  -   -   -  13 16 mph 1019mb 85f 84f
5:20pm  -   -   -  13 16 mph 1019mb 85f 84f
5:10pm  -   -   -  13 16 mph 1019.1mb 85f 84f
5:00pm  -   -   -  13 16 mph 1019.3mb 85f 84f
4:50pm 3.5ft 8s 5s 13 16 mph 1019.3mb - 84f
4:40pm  -   -   -  11 16 mph 1019.4mb 85f 83f
4:30pm  -   -   -  11 16 mph 1019.5mb 85f 84f
4:20pm  -   -   -  11 16 mph 1019.5mb 85f 84f
4:10pm  -   -   -  11 16 mph 1019.5mb 85f 83f
4:00pm  -   -   -  11 16 mph 1019.5mb 85f 83f
3:50pm 4ft 7s 5s 11 16 mph 1019.5mb 85f 83f
3:40pm  -   -   -  11 13 mph 1019.5mb 85f 83f
3:30pm  -   -   -  11 13 mph 1019.5mb 85f 83f
3:20pm  -   -   -  13 16 mph 1019.5mb 85f 83f
3:10pm  -   -   -  11 16 mph 1019.5mb 85f 83f
3:00pm  -   -   -  11 13 mph 1019.5mb 85f 83f
2:50pm 4.5ft 7s 5s 11 16 mph 1019.5mb 85f 83f
2:40pm  -   -   -  13 16 mph 1019.5mb 85f 83f
2:30pm  -   -   -  11 16 mph 1019.5mb 85f 83f
2:20pm  -   -   -  11 16 mph 1019.5mb 85f 83f
2:10pm  -   -   -  11 16 mph 1019.5mb 85f 83f
2:00pm  -   -   -  11 16 mph 1019.5mb 85f 83f
1:50pm 4.5ft 8s 5s 11 13 mph 1019.5mb 85f 83f
1:40pm  -   -   -  11 16 mph 1019.5mb 85f 83f
1:30pm  -   -   -  11 16 mph 1019.5mb 85f 83f
1:20pm  -   -   -  13 16 mph 1019.4mb 85f 83f
1:10pm  -   -   -  13 16 mph 1019.4mb 85f 83f
1:00pm  -   -   -  13 16 mph 1019.3mb 85f 83f
12:50pm 4ft 7s 5s 13 18 mph 1019.1mb 85f 83f
12:40pm 4ft  -  5s 13 18 mph 1019.1mb 85f 83f
12:30pm  -   -   -  13 18 mph 1019.1mb 85f 83f
12:20pm  -   -   -  16 18 mph 1019mb 85f 83f
12:10pm  -   -   -  13 18 mph 1019.1mb 85f 83f
12:00pm  -   -   -  16 18 mph 1019.1mb 85f 83f
11:50am 4.5ft 8s 5s 16 18 mph 1019mb 85f 83f
11:40am 4.5ft  -  5s 13 18 mph 1019mb 85f 83f
11:30am  -   -   -  13 18 mph 1019mb 85f 83f
11:20am  -   -   -  16 18 mph 1018.9mb 85f 83f
11:10am  -   -   -  13 18 mph 1018.6mb 85f 83f
11:00am  -   -   -  16 18 mph 1018.5mb 85f 83f
10:50am 4.5ft 8s 5s 16 18 mph 1018.5mb 84f 83f
10:40am  -   -   -  16 18 mph 1018.3mb 85f 83f
10:30am  -   -   -  16 18 mph 1018.3mb 85f 83f
10:20am  -   -   -  16 18 mph 1018.1mb 85f 83f
10:10am  -   -   -  16 20 mph 1018.1mb 85f 83f
10:00am  -   -   -  16 20 mph 1018mb 85f 83f
9:50am 4.5ft 8s 5s 16 20 mph 1018mb 85f 83f
9:40am  -   -   -  16 18 mph 1018mb 85f 83f
9:30am  -   -   -  16 18 mph 1017.9mb 85f 83f
9:20am  -   -   -  16 20 mph 1017.6mb 85f 83f
9:10am  -   -   -  16 18 mph 1017.6mb 85f 83f
9:00am  -   -   -  16 18 mph 1017.5mb 85f 83f
8:50am 4ft 8s 5s 16 20 mph 1017.5mb 85f 83f
8:40am 4ft  -  5s 16 20 mph 1017.5mb 85f 83f
8:30am  -   -   -  16 18 mph 1017.5mb 85f 83f
8:20am  -   -   -  16 20 mph 1017.5mb 85f 83f
8:10am  -   -   -  16 18 mph 1017.4mb 85f 83f
8:00am  -   -   -  16 18 mph 1017.4mb 85f 83f
7:50am 4ft 8s 5s 13 18 mph 1017.4mb 85f 83f
7:40am  -   -   -  13 18 mph 1017.4mb 85f 83f
7:30am  -   -   -  13 18 mph 1017.4mb 85f 83f
7:20am  -   -   -  13 18 mph 1017.4mb 85f 83f
7:10am  -   -   -  13 16 mph 1017.3mb 85f 83f
7:00am  -   -   -  16 18 mph 1017.4mb 85f 83f
6:50am 4ft 7s 5s 16 18 mph 1017.4mb 85f 83f
6:40am  -   -   -  13 18 mph 1017.5mb 85f 83f
6:30am  -   -   -  13 18 mph 1017.5mb 85f 83f
6:20am  -   -   -  13 18 mph 1017.6mb 85f 83f
6:10am  -   -   -  16 18 mph 1017.6mb 85f 83f
6:00am  -   -   -  13 18 mph 1017.9mb 85f 83f
5:50am 3.5ft 8s 5s 13 18 mph 1017.9mb 85f 83f
5:40am  -   -   -  13 18 mph 1018mb 85f 83f
5:30am  -   -   -  16 18 mph 1018mb 85f 83f
5:20am  -   -   -  13 20 mph 1018.1mb 85f 83f
5:10am  -   -   -  13 18 mph 1018.1mb 85f 83f
5:00am  -   -   -  16 18 mph 1018.1mb 85f 83f
4:50am 4ft 8s 5s 16 20 mph 1018.4mb 85f 83f
4:40am  -   -   -  16 18 mph 1018.5mb 85f 83f
4:30am  -   -   -  13 18 mph 1018.5mb 85f 83f
4:20am  -   -   -  13 18 mph 1018.6mb 85f 83f
4:10am  -   -   -  13 18 mph 1018.6mb 85f 83f
4:00am  -   -   -  16 18 mph 1018.6mb 85f 83f
3:50am 4ft 8s 5s 16 18 mph 1018.8mb 85f 83f
3:40am  -   -   -  13 18 mph 1019mb 85f 83f
3:30am  -   -   -  16 18 mph 1019mb - 83f
3:20am  -   -   -  13 16 mph 1019.1mb 85f 83f
3:10am  -   -   -  13 18 mph 1019.3mb 85f 83f
3:00am  -   -   -  13 18 mph 1019.4mb 85f 83f
2:50am 4ft 7s 5s 16 18 mph 1019.4mb 85f 83f
2:40am  -   -   -  16 18 mph 1019.4mb 85f 83f
2:30am  -   -   -  16 20 mph 1019.4mb 85f 84f
2:20am  -   -   -  16 18 mph 1019.5mb 85f 84f
2:10am  -   -   -  16 18 mph 1019.5mb 85f 84f
2:00am  -   -   -  16 18 mph 1019.5mb 85f 84f
1:50am 4.5ft 7s 5s 13 18 mph 1019.5mb 85f 84f
1:40am  -   -   -  13 16 mph 1019.5mb 85f 84f
1:30am  -   -   -  16 20 mph 1019.4mb 85f 84f
1:20am  -   -   -  16 18 mph 1019.4mb 85f 83f
1:10am  -   -   -  16 18 mph 1019.4mb 85f 84f
1:00am  -   -   -  16 18 mph 1019.3mb 85f 84f
12:50am 4.5ft 8s 5s 16 20 mph 1019.1mb 85f 84f
12:40am  -   -   -  16 20 mph 1019mb 85f 84f
12:30am  -   -   -  16 18 mph 1018.9mb 85f 84f
12:20am  -   -   -  16 20 mph 1018.9mb 85f 84f
12:10am  -   -   -  16 20 mph 1018.9mb 85f 84f
12:00am  -   -   -  16 18 mph 1018.8mb 85f 84f
Mon 07/25 11:50pm 4.5ft 6s 5s 16 18 mph 1018.6mb 85f 84f
11:40pm  -   -   -  16 20 mph 1018.6mb 85f 84f
11:30pm  -   -   -  16 18 mph 1018.5mb - 84f
11:20pm  -   -   -  16 18 mph 1018.5mb 85f 84f
11:10pm  -   -   -  16 18 mph 1018.5mb 85f 84f
11:00pm  -   -   -  16 18 mph 1018.4mb 85f 84f
10:50pm 4.5ft 6s 5s 13 18 mph 1018.3mb 85f 84f
10:40pm  -   -   -  16 18 mph 1018.4mb 85f 84f
10:30pm  -   -   -  13 18 mph 1018.1mb 85f 84f
10:20pm  -   -   -  13 16 mph 1018.3mb 85f 84f
10:10pm  -   -   -  13 18 mph 1018.1mb 85f 84f
10:00pm  -   -   -  13 18 mph 1018mb 85f 84f
9:50pm 4.5ft 8s 5s 13 18 mph 1018.1mb 85f 84f
9:40pm  -   -   -  13 16 mph 1018.1mb 85f 84f
9:30pm  -   -   -  13 16 mph 1018.1mb 85f 84f
9:20pm  -   -   -  13 16 mph 1018.1mb 85f 84f
9:10pm  -   -   -  13 16 mph 1018.1mb 85f 84f
9:00pm  -   -   -  13 16 mph 1018.4mb 85f 84f
8:50pm 4.5ft 8s 5s 13 16 mph 1018.4mb 85f 84f
8:40pm  -   -   -  13 16 mph 1018.5mb 85f 84f
8:30pm  -   -   -  13 16 mph 1018.5mb 85f 84f
8:20pm  -   -   -  13 16 mph 1018.5mb 85f 84f
8:10pm  -   -   -  13 16 mph 1018.5mb 85f 84f
8:00pm  -   -   -  13 16 mph 1018.5mb 85f 84f
7:50pm 4.5ft 8s 5s 13 18 mph 1018.6mb 85f 84f
7:40pm  -   -   -  13 18 mph 1018.6mb 85f 84f
7:30pm  -   -   -  13 16 mph 1018.6mb 85f 84f
7:20pm  -   -   -  13 18 mph 1018.8mb 85f 84f
7:10pm  -   -   -  13 16 mph 1018.8mb 85f 84f
7:00pm  -   -   -  13 18 mph 1018.9mb 85f 84f
6:50pm 4.5ft 8s 5s 13 16 mph 1018.8mb 85f 84f
6:40pm 4.5ft  -  5s 13 16 mph 1019mb 85f 84f
6:30pm  -   -   -  13 16 mph 1019mb 85f 84f
6:20pm  -   -   -  13 16 mph 1019mb 85f 84f
6:10pm  -   -   -  13 18 mph 1019mb 85f 84f
6:00pm  -   -   -  13 18 mph 1019mb 85f 84f
5:50pm 4.5ft 7s 5s 9 13 mph 1019.3mb 85f 83f
5:40pm  -   -   -  9 11 mph 1019.5mb 85f 82f
5:30pm  -   -   -  13 20 mph 1019.5mb 85f 81f
5:20pm  -   -   -  20 27 mph 1019.5mb 85f 83f
5:10pm  -   -   -  13 16 mph 1019.6mb 85f 84f
5:00pm  -   -   -  13 16 mph 1019.5mb 85f 84f
4:50pm 4ft 7s 5s 13 16 mph 1019.5mb 85f 84f
4:40pm  -   -   -  13 16 mph 1019.5mb 85f 84f
4:30pm  -   -   -  13 16 mph 1019.6mb 85f 84f
4:20pm  -   -   -  13 18 mph 1019.6mb 85f 84f
4:10pm  -   -   -  13 18 mph 1019.6mb 85f 84f
4:00pm  -   -   -  16 18 mph 1019.6mb 85f 84f
3:50pm 4.5ft 7s 5s 13 18 mph 1019.6mb 85f 84f
3:40pm  -   -   -  13 16 mph 1019.6mb 85f 84f
3:30pm  -   -   -  13 18 mph 1019.6mb 85f 83f
3:20pm  -   -   -  13 18 mph 1019.6mb 85f 83f
3:10pm  -   -   -  13 18 mph 1019.6mb 85f 83f
3:00pm  -   -   -  9 11 mph 1019.9mb 85f 82f
2:50pm 4.5ft 8s 5s 9 11 mph 1019.9mb 85f 82f
2:40pm  -   -   -  9 13 mph 1019.9mb 85f 81f
2:30pm  -   -   -  13 16 mph 1019.9mb 85f 82f
2:20pm  -   -   -  11 18 mph 1019.8mb 85f 82f
2:10pm  -   -   -  16 25 mph 1019.9mb 85f 82f
2:00pm  -   -   -  16 20 mph 1019.6mb 85f 83f
1:50pm 4.5ft 7s 5s 13 18 mph 1019.6mb 85f 83f
1:40pm  -   -   -  16 20 mph 1019.5mb 85f 83f
1:30pm  -   -   -  13 18 mph 1019.4mb 85f 83f
1:20pm  -   -   -  13 18 mph 1019.4mb 85f 83f
1:10pm  -   -   -  13 18 mph 1019.3mb 85f 83f
1:00pm  -   -   -  13 16 mph 1019.3mb 85f 83f
12:50pm 4.5ft 7s 5s 13 18 mph 1019.1mb 85f 83f
12:40pm  -   -   -  13 18 mph 1019.4mb 85f 83f
12:30pm  -   -   -  13 18 mph 1019.4mb 85f 83f
12:20pm  -   -   -  16 18 mph 1019.3mb 85f 83f
12:10pm  -   -   -  16 18 mph 1019.3mb 85f 83f
12:00pm  -   -   -  16 18 mph 1019.1mb 85f 83f
11:50am 4.5ft 6s 5s 16 18 mph 1019.1mb 85f 83f
11:40am  -   -   -  16 20 mph 1019mb 85f 83f
11:30am  -   -   -  13 18 mph 1019mb 85f 83f
11:20am  -   -   -  13 20 mph 1019mb 85f 83f
11:10am  -   -   -  13 18 mph 1019mb 85f 83f
11:00am  -   -   -  13 18 mph 1018.9mb 85f 83f
10:50am 4.5ft 7s 5s 13 18 mph 1018.8mb 84f 83f
10:40am  -   -   -  13 18 mph 1018.8mb 85f 83f
10:30am  -   -   -  16 18 mph 1018.8mb 84f 83f
10:20am  -   -   -  16 20 mph 1018.6mb 84f 83f
10:10am  -   -   -  16 20 mph 1018.8mb 85f 83f
10:00am  -   -   -  16 20 mph 1018.5mb 85f 83f
9:50am 4.5ft 7s 5s 16 20 mph 1018.5mb 85f 83f
9:40am  -   -   -  16 18 mph 1018.5mb 85f 83f
9:30am  -   -   -  16 18 mph 1018.4mb 85f 83f
9:20am  -   -   -  13 18 mph 1018.3mb 85f 83f
9:10am  -   -   -  13 18 mph 1018.3mb 85f 83f
9:00am  -   -   -  13 18 mph 1018.1mb 85f 83f
8:50am 4ft 6s 5s 13 18 mph 1018.1mb 85f 83f
8:40am  -   -   -  13 18 mph 1018.1mb 85f 83f
8:30am  -   -   -  16 20 mph 1018mb 85f 83f
8:20am  -   -   -  16 18 mph 1018mb 85f 83f
8:10am  -   -   -  16 18 mph 1018.1mb 85f 83f
8:00am  -   -   -  13 16 mph 1018.1mb 85f 83f
7:50am 4ft 7s 5s 13 18 mph 1018.1mb 85f 83f
7:40am 4ft  -  5s 13 16 mph 1018.1mb - 83f
7:30am  -   -   -  13 16 mph 1018.3mb 85f 83f
7:20am  -   -   -  11 13 mph 1018.1mb 85f 83f
7:10am  -   -   -  13 16 mph 1018.1mb 85f 83f
7:00am  -   -   -  13 16 mph 1018.3mb 85f 83f
6:50am 4.5ft 7s 5s 13 18 mph 1018.1mb 85f 83f
6:40am  -   -   -  13 18 mph 1018.1mb 85f 83f
6:30am  -   -   -  13 18 mph 1018.4mb 85f 83f
6:20am  -   -   -  13 18 mph 1018.3mb 85f 83f
6:10am  -   -   -  16 18 mph 1018.4mb 85f 83f
6:00am  -   -   -  16 18 mph 1018.4mb 85f 83f
5:50am 4ft 8s 5s 16 18 mph 1018.3mb 85f 83f
5:40am  -   -   -  16 18 mph 1018.4mb 85f 83f
5:30am  -   -   -  16 18 mph 1018.5mb 85f 83f
5:20am  -   -   -  13 18 mph 1018.5mb 85f 83f
5:10am  -   -   -  16 18 mph 1018.5mb 85f 83f
5:00am  -   -   -  16 18 mph 1018.5mb 85f 83f
4:50am 4ft 7s 4s 16 20 mph 1018.8mb 85f 83f
4:40am  -   -   -  16 20 mph 1018.8mb 85f 83f
4:30am  -   -   -  16 20 mph 1018.9mb 85f 83f
4:20am  -   -   -  16 20 mph 1018.9mb 85f 83f
4:10am  -   -   -  16 18 mph 1019mb 85f 83f
4:00am  -   -   -  16 20 mph 1019mb 85f 83f
3:50am 4ft 7s 5s 18 20 mph 1019mb 85f 83f
3:40am  -   -   -  16 20 mph 1019mb 85f 83f
3:30am  -   -   -  18 20 mph 1019mb 85f 83f
3:20am  -   -   -  18 20 mph 1019.1mb 85f 83f
3:10am  -   -   -  16 20 mph 1019.1mb 85f 83f
3:00am  -   -   -  16 20 mph 1019.3mb 85f 83f
2:50am 4ft 7s 5s 18 20 mph 1019.3mb 85f 83f
2:40am 4ft  -  5s 16 20 mph 1019.3mb 85f 83f
2:30am  -   -   -  16 20 mph 1019.3mb 85f 83f
2:20am  -   -   -  16 18 mph 1019.4mb 85f 83f
2:10am  -   -   -  16 20 mph 1019.4mb 85f 83f
2:00am  -   -   -  13 18 mph 1019.5mb 85f 83f
1:50am 3.5ft 7s 4s 16 18 mph 1019.4mb 85f 83f
1:40am  -   -   -  16 18 mph 1019.4mb 85f 83f
1:30am  -   -   -  16 18 mph 1019.4mb 85f 83f
1:20am  -   -   -  16 18 mph 1019mb 85f 83f
1:10am  -   -   -  16 18 mph 1019mb 85f 84f
1:00am  -   -   -  18 20 mph 1019mb 85f 83f
12:50am 4ft 7s 5s 16 20 mph 1018.9mb 85f 83f
12:40am 4ft  -  5s 16 20 mph 1018.8mb 85f 84f
12:30am  -   -   -  16 18 mph 1018.8mb 85f 84f
12:20am  -   -   -  16 20 mph 1018.6mb - 84f
12:10am  -   -   -  18 20 mph 1018.6mb 85f 84f
12:00am  -   -   -  16 18 mph 1018.5mb 85f 83f
Sun 07/24 11:50pm 3.5ft 8s 5s 16 20 mph 1018.6mb 85f 83f
11:40pm 3.5ft  -  5s 18 20 mph 1018.5mb 85f 83f
11:30pm  -   -   -  16 20 mph 1018.5mb 85f 83f
11:20pm  -   -   -  16 18 mph 1018.5mb 85f 84f
11:10pm  -   -   -  16 20 mph 1018.4mb 85f 84f
11:00pm  -   -   -  16 20 mph 1018.4mb 85f 84f
10:50pm 4ft 6s 5s 16 20 mph 1018.3mb 85f 84f
10:40pm  -   -   -  16 18 mph 1018.3mb 85f 84f
10:30pm  -   -   -  13 18 mph 1018.3mb 85f 84f
10:20pm  -   -   -  16 18 mph 1018.3mb 85f 84f
10:10pm  -   -   -  16 18 mph 1018.3mb 85f 84f
10:00pm  -   -   -  13 18 mph 1018.1mb - -
9:50pm 3.5ft 8s 5s 13 18 mph 1018.1mb 85f 84f
9:40pm  -   -   -  16 18 mph 1018.1mb 85f 84f
9:30pm  -   -   -  13 18 mph 1018.1mb - -
9:20pm  -   -   -  13 18 mph 1018.1mb 85f 84f
9:10pm  -   -   -  16 18 mph 1018.1mb 85f 84f
9:00pm  -   -   -  13 16 mph 1018.1mb 85f 84f
8:50pm 3.5ft 6s 5s 13 18 mph 1018.3mb 85f 84f
8:40pm 3.5ft  -  5s 13 18 mph 1018.1mb 85f 84f
8:30pm  -   -   -  13 16 mph 1018.1mb 85f 84f
8:20pm  -   -   -  13 18 mph 1018mb 85f 84f
8:10pm  -   -   -  13 18 mph 1018mb 85f 84f
8:00pm  -   -   -  13 16 mph 1018mb 85f 84f
7:50pm 3.5ft 8s 5s 13 16 mph 1018mb - 84f
7:40pm  -   -   -  11 16 mph 1018mb 85f 84f
7:30pm  -   -   -  11 16 mph 1018mb 85f 84f
7:20pm  -   -   -  11 13 mph 1018.3mb 85f 84f
7:10pm  -   -   -  11 13 mph 1018.4mb 85f 84f
7:00pm  -   -   -  11 16 mph 1018.5mb 85f 84f
6:50pm 3.5ft 8s 5s 11 16 mph 1018.5mb 85f 84f
6:40pm  -   -   -  11 13 mph 1018.6mb 85f 84f
6:30pm  -   -   -  11 13 mph 1018.6mb 85f 84f
6:20pm  -   -   -  11 13 mph 1018.6mb 85f 84f
6:10pm  -   -   -  11 13 mph 1018.6mb 85f 84f
6:00pm  -   -   -  11 13 mph 1018.8mb 85f 84f
5:50pm 4ft 8s 5s 9 13 mph 1018.8mb 85f 84f
5:40pm 4ft  -  5s 11 13 mph 1019mb 85f 84f
5:30pm  -   -   -  11 13 mph 1019mb 85f 84f
5:20pm  -   -   -  11 16 mph 1019mb 85f 84f
5:10pm  -   -   -  11 13 mph 1019.1mb 85f 84f
5:00pm  -   -   -  11 13 mph 1019.3mb 85f 84f
4:50pm 3.5ft 6s 5s 11 13 mph 1019.3mb 85f 84f
4:40pm  -   -   -  11 13 mph 1019.3mb 85f 84f
4:30pm  -   -   -  11 13 mph 1019.4mb 85f 84f
4:20pm  -   -   -  11 13 mph 1019.4mb 85f 83f
4:10pm  -   -   -  11 13 mph 1019.5mb 85f 83f
4:00pm  -   -   -  11 13 mph 1019.5mb 85f 83f
3:50pm 4ft 6s 5s 11 13 mph 1019.5mb 85f 83f
3:40pm  -   -   -  11 13 mph 1019.5mb 85f 83f
3:30pm  -   -   -  11 13 mph 1019.5mb 85f 83f
3:20pm  -   -   -  11 13 mph 1019.5mb 85f 83f
3:10pm  -   -   -  9 13 mph 1019.6mb 85f 83f
3:00pm  -   -   -  9 13 mph 1019.5mb 85f 83f
2:50pm 4ft 6s 5s 9 13 mph 1019.6mb 85f 83f
2:40pm 4ft  -  5s 11 13 mph 1019.6mb 85f 84f
2:30pm  -   -   -  11 13 mph 1019.6mb - 84f
2:20pm  -   -   -  11 13 mph 1019.5mb 85f 84f
2:10pm  -   -   -  11 13 mph 1019.5mb 85f 83f
2:00pm  -   -   -  11 13 mph 1019.5mb 85f 83f
1:50pm 3.5ft 8s 5s 11 13 mph 1019.5mb 85f 83f
1:40pm  -   -   -  11 13 mph 1019.5mb 85f 83f
1:30pm  -   -   -  11 13 mph 1019.5mb 85f 83f
1:20pm  -   -   -  11 13 mph 1019.4mb 85f 83f
1:10pm  -   -   -  11 13 mph 1019.3mb 85f 83f
1:00pm  -   -   -  11 13 mph 1019.1mb 84f 83f
12:50pm 3.5ft  -  5s 11 13 mph 1019.3mb - 83f
12:40pm  -   -   -  11 13 mph 1019.3mb 84f 83f
12:30pm  -   -   -  11 13 mph 1019.3mb 84f 83f
12:20pm  -   -   -  11 16 mph 1019.3mb 84f 83f
12:10pm  -   -   -  11 16 mph 1019.3mb 84f 83f
12:00pm  -   -   -  11 16 mph 1019.3mb - 83f
11:50am 3.5ft 5s 5s 13
mph
1019.1mb 84f 83f
11:40am  -   -   -  11 13 mph 1019.1mb 84f 83f
11:30am  -   -   -  11 13 mph 1019mb 84f 83f
11:20am  -   -   -  11 13 mph 1019mb 84f 83f
11:10am  -   -   -  11 16 mph 1018.9mb 84f 83f
11:00am  -   -   -  11 16 mph 1018.8mb 84f 83f
10:50am 3.5ft 7s 5s 11 13 mph 1018.8mb 84f 83f
10:40am  -   -   -  11 13 mph 1018.6mb 84f 83f
10:30am  -   -   -  11 13 mph 1018.5mb 84f 83f
10:20am  -   -   -  11 13 mph 1018.5mb 84f 83f
10:10am  -   -   -  11 13 mph 1018.4mb 84f 83f
10:00am  -   -   -  11 13 mph 1018.4mb 84f 83f
9:50am 3.5ft 8s 5s 11 13 mph 1018.1mb 84f 83f
9:40am  -   -   -  11 13 mph 1018.1mb 84f 83f
9:30am  -   -   -  11 13 mph 1018mb 84f 83f
9:20am  -   -   -  11 13 mph 1018mb 84f 83f
9:10am  -   -   -  11 16 mph 1017.9mb 84f 83f
9:00am  -   -   -  11 16 mph 1017.8mb 84f 83f
8:50am 4ft 8s 5s 13 16 mph 1017.8mb 84f 83f
8:40am  -   -   -  13 16 mph 1017.8mb 84f 83f
8:30am  -   -   -  13 16 mph 1017.6mb 84f 83f
8:20am  -   -   -  9 13 mph 1017.5mb 84f 83f
8:10am  -   -   -  11 16 mph 1017.5mb 85f 83f
8:00am  -   -   -  11 16 mph 1017.5mb 85f 83f
7:50am 3.5ft 8s 5s 13 16 mph 1017.4mb 85f 83f
7:40am 3.5ft  -  5s 13 16 mph 1017.5mb 85f 83f
7:30am  -   -   -  13 16 mph 1017.5mb 85f 83f
7:20am  -   -   -  13 18 mph 1017.5mb 85f 83f
7:10am  -   -   -  13 16 mph 1017.5mb 85f 83f
7:00am  -   -   -  13 16 mph 1017.5mb 85f 83f
6:50am 3.5ft 8s 5s 13 16 mph 1017.5mb 85f 83f
6:40am  -   -   -  13 16 mph 1017.5mb - -
6:30am  -   -   -  13 18 mph 1017.5mb 85f 83f
6:20am  -   -   -  13 18 mph 1017.5mb 85f 83f
6:10am  -   -   -  13 18 mph 1017.5mb 85f 83f
6:00am  -   -   -  16 18 mph 1017.6mb 85f 83f
5:50am 3.5ft 8s 4s 16 18 mph 1017.6mb 85f 83f
5:40am  -   -   -  13 16 mph 1017.6mb 85f 83f
5:30am  -   -   -  13 16 mph 1017.6mb 85f 83f
5:20am  -   -   -  13 18 mph 1017.8mb 85f 83f
5:10am  -   -   -  13 18 mph 1017.6mb 85f 83f
5:00am  -   -   -  13 16 mph 1017.6mb 85f 83f
4:50am 3.5ft 8s 5s 13 16 mph 1017.8mb - 83f
4:40am 3.5ft  -  5s 13 18 mph 1017.9mb 85f 83f
4:30am  -   -   -  13 18 mph 1018mb 85f 83f
4:20am  -   -   -  13 18 mph 1018mb 85f 83f
4:10am  -   -   -  13 18 mph 1018mb 85f 83f
4:00am  -   -   -  13 18 mph 1018mb 85f 83f
3:50am 3.5ft 8s 5s 16 18 mph 1018mb 85f 83f
3:40am  -   -   -  13 18 mph 1018mb 85f 83f
3:30am  -   -   -  16 18 mph 1018mb 85f 83f
3:20am  -   -   -  16 18 mph 1018mb 85f 83f
3:10am  -   -   -  16 20 mph 1018mb 85f 83f
3:00am  -   -   -  16 20 mph 1018mb 85f 83f
2:50am 3.5ft 8s 5s 16 18 mph 1018mb 85f 83f
2:40am  -   -   -  16 18 mph 1018mb 85f 83f
2:30am  -   -   -  13 18 mph 1018mb 85f 83f
2:20am  -   -   -  13 18 mph 1018mb 85f 83f
2:10am  -   -   -  13 18 mph 1017.9mb 85f 83f
2:00am  -   -   -  13 16 mph 1018mb 85f 83f
1:50am 3.5ft 8s 5s 13 18 mph 1017.8mb 85f 83f
1:40am  -   -   -  13 16 mph 1017.8mb 85f 83f
1:30am  -   -   -  13 16 mph 1017.8mb 85f 83f
1:20am  -   -   -  13 16 mph 1017.6mb 85f 83f
1:10am  -   -   -  13 16 mph 1017.6mb 85f 83f
1:00am  -   -   -  13 18 mph 1017.6mb 85f 83f
12:50am 3.5ft 8s 5s 13 16 mph 1017.5mb 85f 83f
12:40am  -   -   -  13 16 mph 1017.5mb 85f 83f
12:30am  -   -   -  13 16 mph 1017.5mb 85f 83f
12:20am  -   -   -  11 16 mph 1017.5mb 85f 83f
12:10am  -   -   -  13 16 mph 1017.6mb 85f 83f
12:00am  -   -   -  11 16 mph 1017.5mb 85f 83f
Sat 07/23 11:50pm 3.5ft 8s 5s 11 13 mph 1017.5mb 85f 83f
11:40pm  -   -   -  11 16 mph 1017.5mb 85f 83f
11:30pm  -   -   -  11 16 mph 1017.5mb 85f 83f
11:20pm  -   -   -  13 16 mph 1017.5mb 85f 83f
11:10pm  -   -   -  13 16 mph 1017.4mb 85f 83f
11:00pm  -   -   -  13 16 mph 1017.4mb 85f 83f
10:50pm 3.5ft 8s 5s 11 13 mph 1017.4mb 85f 83f
10:40pm  -   -   -  13 16 mph 1017.3mb 85f 84f
10:30pm  -   -   -  13 16 mph 1017.3mb 85f 84f
10:20pm  -   -   -  11 16 mph 1017.4mb - 84f
10:10pm  -   -   -  11 16 mph 1017.3mb 85f 84f
10:00pm  -   -   -  11 16 mph 1017.4mb 85f 84f
9:50pm 3.5ft 8s 5s 13 16 mph 1017.3mb 85f 84f
9:40pm  -   -   -  13 18 mph 1017.1mb 85f 84f
9:30pm  -   -   -  13 16 mph 1017mb 85f 84f
9:20pm  -   -   -  13 16 mph 1017mb 85f 84f
9:10pm  -   -   -  13 18 mph 1017mb 85f 84f
9:00pm  -   -   -  13 18 mph 1017mb 85f 84f
8:50pm 3.5ft 8s 5s 13 18 mph 1017mb 85f 84f
8:40pm  -   -   -  13 16 mph 1017.1mb 85f 84f
8:30pm  -   -   -  11 16 mph 1017.3mb 85f 84f
8:20pm  -   -   -  11 13 mph 1017.4mb 85f 84f
8:10pm  -   -   -  11 13 mph 1017.4mb 85f 84f
8:00pm  -   -   -  9 13 mph 1017.5mb 85f 84f
7:50pm 3.5ft 8s 6s 9 13 mph 1017.6mb 85f 84f
7:40pm  -   -   -  11 13 mph 1017.5mb 85f 83f
7:30pm  -   -   -  11 13 mph 1017.5mb 85f 83f
7:20pm  -   -   -  11 13 mph 1017.5mb 85f 83f
7:10pm  -   -   -  9 11 mph 1017.8mb 85f 84f
7:00pm  -   -   -  9 11 mph 1018mb 85f 83f
6:50pm 3.5ft 8s 6s 9 11 mph 1018mb 85f 83f
6:40pm 3.5ft  -  6s 9 13 mph 1017.9mb 85f 83f
6:30pm  -   -   -  11 13 mph 1018mb 85f 84f
6:20pm  -   -   -  9 13 mph 1017.9mb 85f 84f
6:10pm  -   -   -  11 13 mph 1018mb 85f 84f
6:00pm  -   -   -  9 13 mph 1018.1mb 85f 83f
5:50pm 3.5ft 9s 6s 9 13 mph 1018.3mb 85f 84f
5:40pm  -   -   -  9 13 mph 1018.3mb 85f 83f
5:30pm  -   -   -  11 13 mph 1018.3mb 85f 83f
5:20pm  -   -   -  9 13 mph 1018.4mb 85f 83f
5:10pm  -   -   -  11 13 mph 1018.4mb 85f 84f
5:00pm  -   -   -  11 13 mph 1018.5mb 85f 84f
4:50pm 3.5ft 9s 6s 9 11 mph 1018.6mb 85f 84f
4:40pm  -   -   -  7 11 mph 1018.8mb 85f 83f
4:30pm  -   -   -  7 9 mph 1019mb 85f 83f
4:20pm  -   -   -  7 9 mph 1019mb 85f 83f
4:10pm  -   -   -  7 9 mph 1019mb 85f 83f
4:00pm  -   -   -  7 11 mph 1019mb 85f 83f
3:50pm 3.5ft 8s 6s 7 9 mph 1019mb 85f 83f
3:40pm  -   -   -  7 9 mph 1019mb 85f 83f
3:30pm  -   -   -  7 9 mph 1019mb 85f 83f
3:20pm  -   -   -  7 9 mph 1019mb 85f 83f
3:10pm  -   -   -  4 7 mph 1019mb 85f 83f
3:00pm  -   -   -  4 7 mph 1019.1mb 85f 83f
2:50pm 3.5ft 8s 6s 4 7 mph 1019.1mb 85f 83f
2:40pm 3.5ft  -  6s 4 7 mph 1019mb 85f 83f
2:30pm  -   -   -  4 7 mph 1019mb 85f 83f
2:20pm  -   -   -  4 7 mph 1019mb 85f 83f
2:10pm  -   -   -  4 7 mph 1019mb 85f 83f
2:00pm  -   -   -  4 7 mph 1019mb 85f 83f
1:50pm 3.5ft 8s 6s 4 7 mph 1019mb 85f 83f
1:40pm  -   -   -  4
mph
1019mb 85f 83f
1:30pm  -   -   -  2 4 mph 1019mb 85f 84f
1:20pm  -   -   -  2 4 mph 1019mb 85f 83f
1:10pm  -   -   -  2 4 mph 1018.9mb 85f 83f
1:00pm  -   -   -  2 4 mph 1018.8mb 85f 83f
12:50pm 3.5ft 8s 6s 2 4 mph 1018.8mb 85f 83f
12:40pm 3.5ft  -  6s 2 4 mph 1018.6mb 85f 83f
12:30pm  -   -   -  4
mph
1018.6mb 85f 83f
12:20pm  -   -   -  4
mph
1018.6mb 84f 83f
12:10pm  -   -   -  4
mph
1018.6mb 84f 83f
12:00pm  -   -   -  2 4 mph 1018.8mb 84f 83f
11:50am 3.5ft 9s 5s 2 4 mph 1018.6mb 84f 83f
11:40am  -   -   -  2 4 mph 1018.6mb 84f 83f
11:30am  -   -   -  4
mph
1018.5mb 84f 83f
11:20am  -   -   -  4
mph
1018.5mb 84f 83f
11:10am  -   -   -  4 7 mph 1018.3mb 84f 83f
11:00am  -   -   -  4 9 mph 1018.1mb 84f 83f
10:50am 3.5ft 8s 6s 7 9 mph 1018.1mb 84f 83f
10:40am  -   -   -  7 11 mph 1018.1mb 84f 83f
10:30am  -   -   -  7 11 mph 1018mb 84f 83f
10:20am  -   -   -  7 9 mph 1017.9mb 84f 83f
10:10am  -   -   -  7 9 mph 1017.9mb 84f 83f
10:00am  -   -   -  4 7 mph 1017.8mb 84f 83f
9:50am 3.5ft 9s 5s 7 9 mph 1017.6mb 84f 83f
9:40am  -   -   -  7 9 mph 1017.6mb 84f 83f
9:30am  -   -   -  7 9 mph 1017.6mb 84f 83f
9:20am  -   -   -  7 9 mph 1017.6mb 84f 83f
9:10am  -   -   -  7 13 mph 1017.5mb 84f 83f